Tracking 18942 objects as of 16-Jan-2018
HD Live streaming from Space Station
objects crossing your sky now

SKYNET 5A

Track SKYNET 5A now!
SKYNET 5A is classified as:


NORAD ID: 30794
Int'l Code: 2007-007B
Perigee: 35,779.0 km
Apogee: 35,808.2 km
Inclination: 0.1 °
Period: 1,436.1 minutes
Semi major axis: 42164 km
RCS: 14.5845 m2 (large)
Launch date: March 11, 2007
Source: United Kingdom (UK)
Launch site: FRENCH GUIANA (FRGUI)

Skynet 5A is a geostationary British military communications craft. The 4.7 tonne craft is reported to be well-hardened against impacts and is capable of repelling jamming attacks. It will be parked at 1.0° W longitude.
aabbcc
Your satellite tracking list
Your tracking list is empty




NASA's NSSDC Master Catalog

Two Line Element Set (TLE):
1 30794U 07007B   18015.92840984 -.00000270 +00000-0 +00000-0 0  9996
2 30794 000.0651 010.2659 0003467 292.7048 241.7344 01.00272339039871
Source of the keplerian elements: AFSPC